sat.trackr.live / text

‹ back to catalog

STARLINK-2446

NORAD 47844 · 2021-018BK

PAYLOAD ACTIVE UNKNOWN

§ Identity

Operator
Country
US
Launch date
2021-03-11
Launch site
AFETR
Launch vehicle
Mass (kg)
RCS (m²)

Purposes: comms

External: N2YO · Heavens-Above · Gunter

§ Orbital elements

Epoch: 2026-09-12T22:19:09.212736Z

Period
93.58 min
Inclination
53.1567°
Eccentricity
0.0004752
Mean motion
15.38725581 rev/d
Perigee alt
446.6 km
Apogee alt
453.1 km
Semi-major
6,828.0 km
B*
1.0150e-3
RAAN
92.1837°
Arg perigee
122.8317°
Mean anomaly
237.3146°
Rev number
30,540

§ Raw data

STARLINK-24461 47844U 21018BK  26255.92996774  .00039244  00000+0  10150-2 0  99922 47844  53.1567  92.1837 0004752 122.8317 237.3146 15.38725581305401

JSON: /api/v1/satellites/47844 · /tle

For live sub-satellite position, see the globe view (requires WebGL).

§ Visibility from observer

Set your observer location to see the next 7 days of passes ≥ 10°. The values pass through the URL so the page stays shareable.

No JS? Fill the form by hand. The geolocation button needs JavaScript.